Big Sky, USA 16 day weather forecast

Slopes altitude range 2070 m - 3400m

Number of lifts: 17 Pistes: 150km

In some cases the lift and piste totals shown are for the ski domain (e.g. Three Valleys) rather than individual resort (e.g. Courchevel)

Overview

The 16 day weather forecast is fully updated 4 times every day.

    • Sun 17 FEB 2019
    • Sun 17
    • -18C -16C
    • Mon 18 FEB 2019
    • Mon 18
    • -25C -24C
    • Tue 19 FEB 2019
    • Tue 19
    • -25C -22C
    • Wed 20 FEB 2019
    • Wed 20
    • -22C -18C
    • Thu 21 FEB 2019
    • Thu 21
    • -18C -16C
    • Fri 22 FEB 2019
    • Fri 22
    • -25C -23C
    • Sat 23 FEB 2019
    • Sat 23
    • -19C -16C
    • Sun 24 FEB 2019
    • Sun 24
    • -11C -10C
    • Mon 25 FEB 2019
    • Mon 25
    • -20C -15C
    • Tue 26 FEB 2019
    • Tue 26
    • -33C -28C
    • Wed 27 FEB 2019
    • Wed 27
    • -24C -13C
    • Thu 28 FEB 2019
    • Thu 28
    • -24C -10C
    • Fri 01 MAR 2019
    • Fri 01
    • -20C -8C
    • Sat 02 MAR 2019
    • Sat 02
    • -18C -9C
    • Sun 03 MAR 2019
    • Sun 03
    • -23C -11C
    • Mon 04 MAR 2019
    • Mon 04
    • -18C -8C

Date:

Time Type 0°C level Temp Chill Snow Cloud Speed Gust Dir Press
12:00 0m -16°C -16_2 1cm 89% 2mph 3mph 1021mB
15:00 0m -17°C -17_3 1cm 96% 3mph 4mph 1024mB
18:00 570m -12°C -12_4 1cm 90% 4mph 4mph 1022mB
21:00 785m -12°C -12_7 1cm 82% 7mph 7mph 1020mB
0:00 347m -13°C -13_7 1cm 84% 7mph 9mph 1022mB
3:00 0m -22°C -22_5 0cm 47% 5mph 6mph 1029mB
6:00 0m -24°C -24_4 0cm 42% 4mph 5mph 1032mB
9:00 0m -24°C -24_3 0cm 34% 3mph 4mph 1033mB
12:00 0m -24°C -24_3 0cm 34% 3mph 4mph 1033mB
15:00 0m -24°C -24_3 0cm 43% 3mph 4mph 1033mB
18:00 326m -14°C -14_3 0cm 59% 3mph 3mph 1027mB
21:00 637m -13°C -13_5 1cm 96% 5mph 5mph 1024mB
0:00 410m -14°C -14_5 1cm 98% 5mph 7mph 1024mB
3:00 0m -19°C -19_3 1cm 98% 3mph 4mph 1028mB
6:00 0m -22°C -22_2 1cm 97% 2mph 2mph 1029mB
9:00 0m -23°C -23_1 0cm 74% 1mph 1mph 1030mB
12:00 0m -22°C -22_2 0cm 60% 2mph 2mph 1030mB
15:00 0m -24°C -24_3 0cm 35% 3mph 3mph 1030mB
18:00 281m -14°C -14_5 0cm 34% 5mph 5mph 1023mB
21:00 650m -14°C -14_6 0cm 36% 6mph 6mph 1018mB
0:00 342m -14°C -14_5 0cm 42% 5mph 7mph 1017mB
3:00 0m -22°C -22_7 0cm 41% 7mph 8mph 1022mB
6:00 0m -23°C -23_8 0cm 60% 8mph 11mph 1022mB
9:00 0m -22°C -22_8 1cm 99% 8mph 13mph 1019mB
12:00 0m -18°C -18_7 1cm 100% 7mph 12mph 1017mB
15:00 0m -17°C -17_6 1cm 100% 6mph 10mph 1016mB
18:00 546m -12°C -12_6 1cm 100% 6mph 8mph 1012mB
21:00 923m -12°C -12_6 1cm 93% 6mph 7mph 1009mB
0:00 753m -12°C -12_5 1cm 92% 5mph 7mph 1009mB
3:00 0m -17°C -17_4 0cm 84% 4mph 5mph 1014mB
6:00 0m -18°C -18_3 1cm 91% 3mph 3mph 1016mB
9:00 0m -18°C -18_3 1cm 99% 3mph 4mph 1018mB
12:00 0m -16°C -16_5 1cm 99% 5mph 6mph 1020mB
15:00 0m -18°C -18_5 1cm 90% 5mph 6mph 1023mB
18:00 452m -13°C -13_6 1cm 87% 6mph 7mph 1020mB
21:00 754m -13°C -13_6 1cm 93% 6mph 6mph 1017mB
0:00 476m -13°C -13_7 1cm 94% 7mph 9mph 1018mB
3:00 0m -21°C -21_4 0cm 51% 4mph 5mph 1024mB
6:00 0m -23°C -23_2 0cm 45% 2mph 3mph 1027mB
9:00 0m -24°C -24_0 0cm 34% 0mph 2mph 1029mB
12:00 0m -23°C -23_1 0cm 22% 1mph 2mph 1030mB
15:00 0m -22°C -22_3 0cm 0% 3mph 4mph 1031mB
18:00 524m -12°C -12_6 0cm 0% 6mph 7mph 1025mB
21:00 866m -12°C -12_7 0cm 4% 7mph 9mph 1021mB
0:00 490m -12°C -12_8 0cm 17% 8mph 12mph 1022mB
3:00 0m -21°C -21_9 0cm 82% 9mph 10mph 1028mB
6:00 0m -21°C -21_10 0cm 81% 10mph 16mph 1029mB
9:00 0m -19°C -19_9 1cm 98% 9mph 16mph 1029mB
12:00 0m -16°C -16_9 1cm 99% 9mph 16mph 1029mB
15:00 0m -16°C -16_9 1cm 98% 9mph 17mph 1029mB
18:00 724m -11°C -11_12 1cm 89% 12mph 17mph 1023mB
21:00 1060m -11°C -11_13 1cm 57% 13mph 18mph 1019mB
0:00 827m -11°C -11_12 1cm 70% 12mph 21mph 1018mB
3:00 662m -12°C -12_13 1cm 99% 13mph 30mph 1020mB
6:00 713m -12°C -12_14 1cm 97% 14mph 34mph 1018mB
9:00 769m -11°C -11_13 1cm 99% 13mph 33mph 1016mB
12:00 898m -10°C -10_8 2cm 99% 8mph 24mph 1014mB
15:00 861m -10°C -10_6 1cm 100% 6mph 12mph 1015mB
18:00 1173m -8°C -8_9 1cm 100% 9mph 15mph 1014mB
21:00 1202m -8°C -8_3 1cm 100% 3mph 5mph 1013mB
0:00 964m -10°C -10_2 3cm 100% 2mph 5mph 1014mB
3:00 543m -13°C -13_4 2cm 100% 4mph 6mph 1018mB
6:00 223m -15°C -15_5 4cm 100% 5mph 9mph 1020mB
9:00 0m -17°C -17_7 1cm 100% 7mph 12mph 1022mB
12:00 0m -15°C -15_5 2cm 100% 5mph 9mph 1024mB
15:00 0m -20°C -20_6 1cm 100% 6mph 10mph 1026mB
18:00 0m -18°C -18_7 1cm 100% 7mph 11mph 1024mB
21:00 0m -18°C -18_9 1cm 100% 9mph 12mph 1022mB
0:00 0m -19°C -19_8 1cm 100% 8mph 13mph 1025mB
3:00 0m -24°C -24_6 1cm 100% 6mph 6mph 1032mB
6:00 0m -28°C -28_5 0cm 100% 5mph 5mph 1036mB
9:00 0m -31°C -31_4 0cm 99% 4mph 4mph 1040mB
12:00 0m -28°C -28_3 0cm 81% 3mph 3mph 1042mB
15:00 0m -31°C -31_0 0cm 37% 0mph 1mph 1044mB
18:00 0m -18°C -18_3 0cm 39% 3mph 3mph 1037mB
21:00 370m -18°C -18_4 0cm 89% 4mph 6mph 1032mB
0:00 267m -18°C -18_3 1cm 94% 3mph 5mph 1032mB
3:00 0m -22°C -22_1 1cm 99% 1mph 1mph 1037mB
6:00 0m -23°C -23_3 1cm 100% 3mph 3mph 1038mB
Afternoon 0mm 0 441m -13°C -13_4 0cm 74% 4mph 5mph 1034mB
Morning 0mm 0.0625 0m -23°C -23_3 0cm 32% 3mph 3mph 1041mB
Afternoon 0mm 0 873m -10°C -10_4 0cm 0% 4mph 6mph 1031mB
Morning 0mm 0 0m -19°C -19_3 0cm 10% 3mph 4mph 1033mB
Afternoon 0mm 0 1105m -8°C -8_3 0cm 60% 3mph 4mph 1030mB
Morning 0mm 0 0m -17°C -17_10 0cm 11% 10mph 18mph 1027mB
Afternoon 0mm 0 942m -9°C -9_9 0cm 62% 9mph 15mph 1015mB
Morning 0mm 0.0625 1m -16°C -16_7 0cm 81% 7mph 12mph 1019mB
Afternoon 0mm 0 745m -11°C -11_8 0cm 25% 8mph 11mph 1010mB
Morning 0mm 0 18m -16°C -16_9 0cm 68% 9mph 19mph 1008mB
Afternoon 0mm 0 1114m -8°C -8_4 0cm 89% 4mph 5mph 1004mB
Morning 0.015625mm 0.25 2m -16°C -16_7 2cm 97% 7mph 11mph 1018mB

16 day outlook at a glance

Forecast issued: 2/17/2019 2:36:03 PM

Chat

Your comments and questions. In a resort? Let us know what it's like!


Characters left 250

For terms and conditions see Readers Comments on the Cookie and privacy policy page.